Regional Weather Roundup
Issued by NWS

Home | Current Version | Previous Version | Graphics & Text | Print | Product List | Glossary On
Versions: 1 2 3 4 5 6 7 8 9 10 11 12 13 14 15 16 17 18 19 20 21 22 23 24 25 26 27 28 29 30 31 32 33 34 35 36 37 38 39 40 41 42 43 44 45 46 47 48 49 50
000
ASUS43 KIND 270609
RWRIN

WEATHER ROUNDUP FOR INDIANA
NATIONAL WEATHER SERVICE INDIANAPOLIS IN
200 AM EDT WED MAY 27 2015

NOTE: "FAIR" INDICATES FEW OR NO CLOUDS BELOW 12,000 FEET WITH NO
SIGNIFICANT WEATHER AND/OR OBSTRUCTIONS TO VISIBILITY.

* - STATION DOES NOT REPORT WEATHER SUCH AS PRECIPITATION OR FOG.

+ - STATION NOT QUALITY CONTROLLED BY THE NATIONAL WEATHER SERVICE.
    USE DATA WITH CAUTION...ESPECIALLY DEWPOINT AND RELATIVE
    HUMIDITY OBSERVATIONS.

INZ001>003-010>013-019-020-270700-
NORTHWEST INDIANA

CITY           SKY/WX    TMP DP  RH WIND       PRES   REMARKS
GARY /AIRPORT/ MOCLDY    70  62  75 S8        29.87F
KNOX *+        CLEAR     64  59  82 SW16      29.91S
LA PORTE +     PTCLDY    68  62  79 SW12      29.91S
6HR MIN TEMP:  68; 6HR MAX TEMP:  75;

MICHIGAN CITY+ PTCLDY    66  59  77 S13       29.89S
MONTICELLO +   CLEAR     66  61  84 S10       29.94S
6HR MIN TEMP:  65; 6HR MAX TEMP:  73;

RENSSELAER +   CLEAR     66  63  88 S16       29.92F
VALPARAISO     PTCLDY    67  60  78 SW12      29.90F
6HR MIN TEMP:  67; 6HR MAX TEMP:  73;


$$

LMZ046-743>745-270700-
SOUTHERN LAKE MICHIGAN

STATION/POSITION TIME  TEMP    WIND        PRES    WAVE
                       AIR SEA DIR/SP/G            HT
                 (UTC) (F)     (DEG/KT/KT) (MB)    (FT)
BURNS HARBOR     0600   68     190/ 15/ 21 1011.9F
MICHIGAN CITY    0600   69     170/ 18/ 24   N/A
5NW MICH CITY    0600   64 52  210/ 16/ 21   N/A     2

$$

INZ004-005-014>016-021>024-270700-
NORTH CENTRAL INDIANA

CITY           SKY/WX    TMP DP  RH WIND       PRES   REMARKS
GOSHEN         PTCLDY    66  60  81 SW12      29.92F
6HR MIN TEMP:  65; 6HR MAX TEMP:  75;

LOGANSPORT +   CLEAR     66  55  68 SW14G21   29.96S
PERU/GRISSOM   CLEAR     65  60  81 SW13      29.95S
6HR MIN TEMP:  65; 6HR MAX TEMP:  77;

ROCHESTER +    CLEAR     68  61  77 SW8       29.95R
SOUTH BEND     CLEAR     68  60  75 SW12      29.90F
6HR MIN TEMP:  67; 6HR MAX TEMP:  72;

WARSAW +       CLEAR     66  61  82 SW6       29.94S

$$

INZ006>009-017-018-025>027-270700-
NORTHEAST INDIANA

CITY           SKY/WX    TMP DP  RH WIND       PRES   REMARKS
ANGOLA *+      CLEAR     66  61  82 SW7       29.93S
AUBURN +       PTCLDY    68  59  73 SW5       29.96R
FORT WAYNE     MOCLDY    65  60  84 SW10      29.96S
6HR MIN TEMP:  65; 6HR MAX TEMP:  73;

HUNTINGTON +   PTCLDY    67  59  74 SW7       29.96S
6HR MIN TEMP:  67; 6HR MAX TEMP:  73;


$$

INZ028-029-035-036-043>045-051>053-270700-
WEST CENTRAL INDIANA

CITY           SKY/WX    TMP DP  RH WIND       PRES   REMARKS
CRAWFORDSVL +  CLEAR     65  56  73 S12       29.99S
6HR MIN TEMP:  65; 6HR MAX TEMP:  74;

GREENCASTLE +  CLEAR     64  55  72 S6        30.01S
LAFAYETTE      CLEAR     66  59  78 S8        29.96R
6HR MIN TEMP:  66; 6HR MAX TEMP:  74;

TERRE HAUTE    CLEAR     68  61  78 SW9       30.00S
6HR MIN TEMP:  68; 6HR MAX TEMP:  75;


$$

INZ030>032-037>040-046>048-054>057-064-065-270700-
CENTRAL INDIANA

CITY           SKY/WX    TMP DP  RH WIND       PRES   REMARKS
CP ATTERBURY + PTCLDY    64  59  82 SW5       30.03R
FISHERS *+     CLEAR     64  61  88 S9        30.00S
FRANKFORT +    CLEAR     67  60  78 S13       30.00S
6HR MIN TEMP:  67; 6HR MAX TEMP:  78;

GREENWOOD *+   PTCLDY    66  57  72 SW7       30.02S
INDIANAPOLIS   PTCLDY    66  58  75 SW10      29.99S
6HR MIN TEMP:  66; 6HR MAX TEMP:  76;

-EAGLE CREEK   CLEAR     68  59  73 SW8       30.00R
6HR MIN TEMP:  68; 6HR MAX TEMP:  77;

KOKOMO *+      CLEAR     68  57  68 SW15      29.97S
6HR MIN TEMP:  68; 6HR MAX TEMP:  79;

MARION +       CLEAR     66  58  74 SW12      29.99R
MT COMFORT *+  CLEAR     66  57  72 SW8       30.01S
SHELBYVILLE    PTCLDY    68  60  75 S9        30.02R
6HR MIN TEMP:  68; 6HR MAX TEMP:  76;

ZIONSVILLE +   CLEAR     67  58  72 SW10      30.00S
6HR MIN TEMP:  67; 6HR MAX TEMP:  77;


$$

INZ033-034-041-042-049-050-058-059-270700-
EAST CENTRAL INDIANA

CITY           SKY/WX    TMP DP  RH WIND       PRES   REMARKS
MUNCIE         PTCLDY    68  61  78 SW8       30.00R
6HR MIN TEMP:  68; 6HR MAX TEMP:  74; 6HR PCP: TRACE;


$$

INZ060-061-067>069-081>083-085>088-270700-
SOUTHWEST INDIANA

CITY           SKY/WX    TMP DP  RH WIND       PRES   REMARKS
EVANSVILLE     CLEAR     67  61  81 SW6       30.05F
6HR MIN TEMP:  66; 6HR MAX TEMP:  77;

HUNTINGBURG *+ CLEAR     64  59  82 S5        30.05F
6HR MIN TEMP:  64; 6HR MAX TEMP:  75;

WASHINGTON +   CLEAR     68  60  76 SW10      30.02F
6HR MIN TEMP:  68; 6HR MAX TEMP:  76;


$$

INZ062-063-066-070>080-084-089>092-270700-
SOUTH CENTRAL AND SOUTHEAST INDIANA

CITY           SKY/WX    TMP DP  RH WIND       PRES   REMARKS
BLOOMINGTON    CLEAR     67  60  78 SW9       30.02S
6HR MIN TEMP:  67; 6HR MAX TEMP:  76;

MADISON *+     MOCLDY    68  64  88 S7        30.08S
NORTH VERNON + PTCLDY    66  66 100 S7        30.06R FOG
SEYMOUR +      PTCLDY    66  63  88 S5        30.05R

$$




USA.gov is the U.S. government's official web portal to all federal, state and local government web resources and services.